Tracking 20623 objects as of 4-Apr-2020
HD Live streaming from Space Station
objects crossing your sky now

SL-14 R/B

Track SL-14 R/B now!
10-day predictions


NORAD ID: 16327
Int'l Code: 1985-113B
Perigee: 612.9 km
Apogee: 638.2 km
Inclination: 82.5 °
Period: 97.1 minutes
Semi major axis: 6996 km
RCS: 4.5252 m2 (large)
Launch date: December 12, 1985
Source: Commonwealth of Independent States (former USSR) (CIS)
Launch site: PLESETSK MISSILE AND SPACE COMPLEX (PKMTR)

Note: This is a ROCKET BODY
aabbcc
Your satellite tracking list
Your tracking list is empty




NASA's NSSDC Master Catalog

Two Line Element Set (TLE):
1 16327U 85113B   20094.45339865 +.00000062 +00000-0 +45829-5 0  9996
2 16327 082.5365 217.5850 0018135 216.5671 209.4988 14.83460834832132
Source of the keplerian elements: AFSPC